| time (UTC) | temp F | wind direction | speed MPH | gust MPH | rain 1hr in | rain 24hr in | rain mn in | humidity % | barometer mb |
| 20260505055526 | 51 | 143 | 5.0 | 17.0 | 0.05 | 0.19 | 0.19 | 90 | 1021.4 |
| 20260505054516 | 51 | 139 | 1.0 | 7.0 | 0.03 | 0.17 | 0.17 | 90 | 1021.6 |
| 20260505053607 | 51 | 146 | 3.0 | 9.0 | 0.02 | 0.15 | 0.15 | 89 | 1021.5 |
| 20260505052557 | 51 | 140 | 8.0 | 14.0 | 0.02 | 0.14 | 0.14 | 89 | 1021.4 |
| 20260505051547 | 51 | 148 | 1.0 | 10.0 | 0.03 | 0.14 | 0.14 | 89 | 1021.3 |
| 20260505050538 | 52 | 178 | 1.0 | 6.0 | 0.03 | 0.14 | 0.14 | 89 | 1021.5 |
| 20260505041548 | 52 | 163 | 0.0 | 7.0 | 0.08 | 0.11 | 0.11 | 86 | 1021.4 |
| 20260505040559 | 52 | 168 | 0.0 | 7.0 | 0.10 | 0.11 | 0.11 | 85 | 1021.3 |
| 20260505035528 | 52 | 136 | 3.0 | 9.0 | 0.09 | 0.09 | 0.09 | 84 | 1021.0 |
| 20260505034518 | 52 | 155 | 4.0 | 9.0 | 0.08 | 0.08 | 0.08 | 84 | 1021.2 |
| 20260505033609 | 52 | 155 | 5.0 | 9.0 | 0.06 | 0.06 | 0.06 | 85 | 1021.2 |
| 20260505032640 | 52 | 150 | 2.0 | 7.0 | 0.05 | 0.05 | 0.05 | 86 | 1021.5 |
| 20260505031610 | 52 | 142 | 3.0 | 7.0 | 0.03 | 0.03 | 0.03 | 84 | 1021.6 |
| 20260505030539 | 53 | 167 | 1.0 | 6.0 | 0.01 | 0.01 | 0.01 | 80 | 1021.5 |
| 20260505025529 | 54 | 143 | 1.0 | 8.0 | 0.00 | 0.00 | 0.00 | 76 | 1021.4 |
| 20260505024520 | 54 | 147 | 0.0 | 4.0 | 0.00 | 0.00 | 0.00 | 77 | 1021.6 |
| 20260505023610 | 55 | 123 | 1.0 | 4.0 | 0.00 | 0.00 | 0.00 | 78 | 1021.4 |
| 20260505022600 | 56 | 134 | 1.0 | 4.0 | 0.00 | 0.00 | 0.00 | 74 | 1021.4 |
| 20260505021610 | 55 | 150 | 5.0 | 9.0 | 0.00 | 0.00 | 0.00 | 76 | 1021.4 |
| 20260505020540 | 55 | 131 | 2.0 | 7.0 | 0.00 | 0.00 | 0.00 | 78 | 1021.5 |
| 20260505015531 | 56 | 113 | 1.0 | 4.0 | 0.00 | 0.00 | 0.00 | 77 | 1021.6 |
| 20260505014521 | 57 | 142 | 2.0 | 7.0 | 0.00 | 0.00 | 0.00 | 75 | 1021.6 |
| 20260505013631 | 57 | 141 | 4.0 | 10.0 | 0.00 | 0.00 | 0.00 | 73 | 1021.7 |
| 20260505012621 | 57 | 157 | 5.0 | 9.0 | 0.00 | 0.00 | 0.00 | 72 | 1021.7 |
| 20260505011551 | 57 | 155 | 5.0 | 8.0 | 0.00 | 0.00 | 0.00 | 70 | 1021.9 |
| 20260505010541 | 58 | 140 | 1.0 | 4.0 | 0.00 | 0.00 | 0.00 | 68 | 1022.0 |
| 20260505005532 | 58 | 139 | 4.0 | 7.0 | 0.00 | 0.00 | 0.00 | 68 | 1022.1 |
| 20260505004521 | 58 | 160 | 4.0 | 8.0 | 0.00 | 0.00 | 0.00 | 69 | 1022.0 |
| 20260505003612 | 57 | 158 | 5.0 | 8.0 | 0.00 | 0.00 | 0.00 | 72 | 1022.0 |
| 20260505002602 | 56 | 142 | 4.0 | 7.0 | 0.00 | 0.00 | 0.00 | 73 | 1022.3 |
| 20260505001552 | 57 | 129 | 0.0 | 6.0 | 0.00 | 0.00 | 0.00 | 72 | 1022.7 |
| 20260505000602 | 57 | 157 | 1.0 | 4.0 | 0.00 | 0.00 | 0.00 | 72 | 1022.8 |
| 20260504235532 | 57 | 154 | 5.0 | 8.0 | 0.00 | 0.00 | 0.00 | 71 | 1022.7 |
| 20260504234522 | 57 | 150 | 5.0 | 9.0 | 0.00 | 0.00 | 0.00 | 68 | 1022.8 |
| 20260504233613 | 57 | 138 | 1.0 | 3.0 | 0.00 | 0.00 | 0.00 | 67 | 1022.7 |
| 20260504232603 | 57 | 163 | 2.0 | 6.0 | 0.00 | 0.00 | 0.00 | 69 | 1022.8 |
| 20260504231553 | 57 | 150 | 2.0 | 7.0 | 0.00 | 0.00 | 0.00 | 67 | 1023.1 |
| 20260504230543 | 57 | 146 | 3.0 | 4.0 | 0.00 | 0.00 | 0.00 | 62 | 1023.3 |
| 20260504225533 | 57 | 139 | 1.0 | 3.0 | 0.00 | 0.00 | 0.00 | 58 | 1023.4 |
| 20260504224523 | 57 | 151 | 2.0 | 3.0 | 0.00 | 0.00 | 0.00 | 59 | 1023.6 |
| 20260504223614 | 57 | 146 | 3.0 | 7.0 | 0.00 | 0.00 | 0.00 | 57 | 1023.5 |
| 20260504222604 | 57 | 153 | 3.0 | 7.0 | 0.00 | 0.00 | 0.00 | 57 | 1023.4 |
| 20260504221614 | 57 | 156 | 4.0 | 7.0 | 0.00 | 0.00 | 0.00 | 57 | 1023.3 |
| 20260504220544 | 57 | 153 | 4.0 | 7.0 | 0.00 | 0.00 | 0.00 | 57 | 1023.6 |
| 20260504215554 | 57 | 138 | 3.0 | 6.0 | 0.00 | 0.00 | 0.00 | 59 | 1023.5 |
| 20260504214524 | 57 | 145 | 3.0 | 6.0 | 0.00 | 0.00 | 0.00 | 56 | 1023.6 |
| 20260504213615 | 57 | 156 | 3.0 | 6.0 | 0.00 | 0.00 | 0.00 | 56 | 1023.5 |
| 20260504212605 | 57 | 149 | 2.0 | 4.0 | 0.00 | 0.00 | 0.00 | 57 | 1023.6 |
| 20260504211555 | 56 | 164 | 3.0 | 4.0 | 0.00 | 0.00 | 0.00 | 60 | 1023.6 |
| 20260504210545 | 56 | 150 | 3.0 | 6.0 | 0.00 | 0.00 | 0.00 | 63 | 1023.8 |
| 20260504205535 | 56 | 151 | 4.0 | 4.0 | 0.00 | 0.00 | 0.00 | 66 | 1023.8 |
| 20260504204525 | 56 | 152 | 3.0 | 4.0 | 0.00 | 0.00 | 0.00 | 72 | 1023.8 |
| 20260504203515 | 56 | 140 | 3.0 | 4.0 | 0.00 | 0.00 | 0.00 | 75 | 1023.9 |
| 20260504202646 | 57 | 158 | 0.0 | 1.0 | 0.00 | 0.00 | 0.00 | 71 | 1023.9 |
| 20260504201556 | 57 | 166 | 0.0 | 2.0 | 0.00 | 0.00 | 0.00 | 65 | 1023.6 |
| 20260504200546 | 57 | 150 | 4.0 | 7.0 | 0.00 | 0.00 | 0.00 | 63 | 1023.4 |
| 20260504195537 | 57 | 151 | 4.0 | 6.0 | 0.00 | 0.00 | 0.00 | 63 | 1023.4 |
| 20260504194527 | 57 | 149 | 3.0 | 3.0 | 0.00 | 0.00 | 0.00 | 63 | 1023.6 |
| 20260504193517 | 56 | 153 | 3.0 | 4.0 | 0.00 | 0.00 | 0.00 | 68 | 1023.8 |
| 20260504192632 | 57 | 150 | 2.0 | 4.0 | 0.00 | 0.00 | 0.00 | 71 | 1023.7 |
| 20260504191558 | 57 | 144 | 1.0 | 3.0 | 0.00 | 0.00 | 0.00 | 70 | 1023.5 |
| 20260504190547 | 57 | 156 | 3.0 | 4.0 | 0.00 | 0.00 | 0.00 | 72 | 1023.5 |
| 20260504185538 | 57 | 141 | 2.0 | 6.0 | 0.00 | 0.00 | 0.00 | 72 | 1023.4 |
| 20260504184528 | 57 | 149 | 1.0 | 3.0 | 0.00 | 0.00 | 0.00 | 73 | 1023.3 |
| 20260504183518 | 57 | 152 | 2.0 | 4.0 | 0.00 | 0.00 | 0.00 | 72 | 1023.3 |
| 20260504182608 | 58 | 138 | 2.0 | 6.0 | 0.00 | 0.00 | 0.00 | 70 | 1023.3 |
| 20260504181558 | 58 | 152 | 1.0 | 3.0 | 0.00 | 0.00 | 0.00 | 67 | 1023.5 |
| 20260504180548 | 58 | 147 | 1.0 | 4.0 | 0.00 | 0.00 | 0.00 | 66 | 1023.2 |
| 20260504175540 | 58 | 150 | 1.0 | 4.0 | 0.00 | 0.00 | 0.00 | 68 | 1023.2 |
| 20260504174528 | 59 | 122 | 0.0 | 3.0 | 0.00 | 0.00 | 0.00 | 70 | 1023.4 |
| 20260504173518 | 59 | 121 | 0.0 | 1.0 | 0.00 | 0.00 | 0.00 | 72 | 1023.2 |
| 20260504172609 | 59 | 147 | 1.0 | 4.0 | 0.00 | 0.00 | 0.00 | 72 | 1023.3 |
| 20260504171559 | 60 | 139 | 1.0 | 3.0 | 0.00 | 0.00 | 0.00 | 70 | 1023.4 |
| 20260504170550 | 61 | 132 | 0.0 | 2.0 | 0.00 | 0.00 | 0.00 | 66 | 1023.5 |
| 20260504150551 | 64 | 113 | 0.0 | 2.0 | 0.00 | 0.00 | 0.00 | 64 | 1023.8 |
| 20260504140552 | 66 | 111 | 0.0 | 2.0 | 0.00 | 0.00 | 0.00 | 59 | 1023.5 |
| 20260504130554 | 66 | 118 | 0.0 | 2.0 | 0.00 | 0.00 | 0.00 | 58 | 1024.2 |
| 20260504110556 | 67 | 136 | 0.0 | 2.0 | 0.00 | 0.00 | 0.00 | 45 | 1025.0 |
| 20260504100556 | 67 | 122 | 1.0 | 2.0 | 0.00 | 0.00 | 0.00 | 43 | 1025.4 |
| 20260504081628 | 63 | 127 | 0.0 | 3.0 | 0.00 | 0.00 | 0.00 | 45 | 1025.6 |
| 20260504080558 | 63 | 129 | 0.0 | 3.0 | 0.00 | 0.00 | 0.00 | 47 | 1025.5 |